Probability
0 0 0 0 0 0 0 0 0 0 0 0 0 0 0 0 0 0 0 0 0 0 0 1 2 4 5 5 5 5 3 1 2 2 1 0 0 0 0 0 0 0 0 0
0 0 0 0 0 0 0 0 0 0 0 0 0 0 0 0 0 0 0 0 0 0 0 1 2 3 5 6 5 4 3 1 1 1 0 0 0 0 0 0 0 0 0 0
0 0 0 0 0 0 0 0 0 0 0 0 0 0 0 0 0 0 0 0 0 0 0 0 1 1 3 6 6 4 2 1 0 0 0 0 0 0 0 0 0 0 0 0
0 0 0 0 0 0 0 0 0 0 0 0 0 0 0 0 0 0 0 0 0 0 0 0 0 0 2 5 7 5 3 1 0 0 0 0 0 0 0 0 0 0 0 0
0 0 0 0 0 0 0 0 0 0 0 0 0 0 0 0 0 0 0 0 0 0 0 0 0 0 1 3 6 7 5 2 0 0 0 0 0 0 0 0 0 0 0 0
0 0 0 0 0 0 0 0 0 0 0 0 0 0 0 0 0 0 0 0 0 0 0 0 0 0 0 2 4 6 5 3 1 0 0 0 0 0 0 0 0 0 0 0
0 0 0 0 0 0 0 0 0 0 0 0 0 0 0 0 0 0 0 0 0 0 0 0 0 0 0 0 2 4 5 4 2 1 0 0 0 0 0 0 0 0 0 0
0 0 0 0 0 0 0 0 0 0 0 0 0 0 0 0 0 0 0 0 0 0 0 0 0 0 0 0 1 2 3 3 2 1 0 0 0 0 0 0 0 0 0 0
0 0 0 0 0 0 0 0 0 0 0 0 0 0 0 0 0 0 0 0 0 0 0 0 0 0 0 0 0 1 1 1 3 3 1 0 0 0 0 0 0 0 0 0
0 0 0 0 0 0 0 0 0 0 0 0 0 0 0 0 0 0 0 0 0 0 0 0 0 0 0 0 0 0 0 1 3 3 2 1 0 0 0 0 0 0 0 0
0 0 0 0 0 0 0 0 0 0 0 0 0 0 0 0 0 0 0 0 0 0 0 0 0 0 0 0 0 0 0 1 2 2 1 1 1 1 0 0 0 0 0 0
0 0 0 0 0 0 0 0 0 0 0 0 0 0 0 0 0 0 0 0 0 0 0 0 0 0 0 0 0 0 0 0 0 0 0 1 2 1 0 0 0 0 0 0
0 0 0 0 0 0 0 0 0 0 0 0 0 0 0 0 0 0 0 0 0 0 0 0 0 0 0 0 0 0 0 0 0 0 0 1 2 2 1 0 0 0 0 0
0 0 0 0 0 0 0 0 0 0 0 0 0 0 0 0 0 0 0 0 0 0 0 0 0 0 0 0 0 0 0 0 0 0 0 1 2 2 1 0 0 0 0 0
0 0 0 0 0 0 0 0 0 0 0 0 0 0 0 0 0 0 0 0 0 0 0 0 0 0 0 0 0 0 0 0 0 0 0 1 2 3 1 0 0 0 0 0
0 0 0 0 0 0 0 0 0 0 0 0 0 0 0 0 0 0 0 0 0 0 0 0 0 0 0 0 0 0 0 0 0 0 0 1 2 3 2 1 0 0 0 0
0 0 0 0 0 0 0 0 0 0 0 0 0 0 0 0 0 0 0 0 0 0 0 0 0 0 0 0 0 0 0 0 0 0 0 1 2 3 2 1 0 0 0 0
0 0 0 0 0 0 0 0 0 0 0 0 0 0 0 0 0 0 0 0 0 0 0 0 0 0 0 0 0 0 0 0 0 0 0 1 2 3 2 1 0 0 0 0
0 0 0 0 0 0 0 0 0 0 0 0 0 0 0 0 0 0 0 0 0 0 0 0 0 0 0 0 0 0 0 0 0 0 0 0 1 3 2 1 0 0 0 0
0 0 0 0 0 0 0 0 0 0 0 0 0 0 0 0 0 0 0 0 0 0 0 0 0 0 0 0 0 0 0 0 0 0 0 0 1 2 3 1 0 0 0 0
0 0 0 0 0 0 0 0 0 0 0 0 0 0 0 0 0 0 0 0 0 0 0 0 0 0 0 0 0 0 0 0 0 0 0 0 1 2 3 2 1 0 0 0
0 0 0 0 0 0 0 0 0 0 0 0 0 0 0 0 0 0 0 0 0 0 0 0 0 0 0 0 0 0 0 0 0 0 0 0 1 3 3 2 1 0 0 0
0 0 0 0 0 0 0 0 0 0 0 0 0 0 0 0 0 0 0 0 0 0 0 0 0 0 0 0 0 0 0 0 0 0 0 1 2 3 3 2 1 0 0 0
0 0 0 0 0 0 0 0 0 0 0 0 0 0 0 0 0 0 0 0 0 0 0 0 0 0 0 0 0 0 0 0 0 0 0 1 2 3 3 2 1 0 0 0
0 0 0 0 0 0 0 0 0 0 0 0 0 0 0 0 0 0 0 0 0 0 0 0 0 0 0 0 0 0 0 0 0 0 0 1 2 2 1 1 0 0 0 0
0 0 0 0 0 0 0 0 0 0 0 0 0 0 0 0 0 0 0 0 0 0 0 0 0 0 0 0 0 0 0 0 0 0 0 0 1 2 1 0 0 0 0 0
Wind_Speed
1 2 5 7 10 8 6 7 10 9 6 7 11 12 10 8 8 9 9 9 10 13 13 9 11 11 12 14 16 17 17 16 14 12 12 11 11 9 8 8 9 10 9 10
1 6 8 6 6 7 7 8 9 8 6 6 9 13 11 10 11 11 11 11 12 12 9 9 10 12 14 17 18 18 18 17 17 14 12 9 8 6 6 6 8 10 11 11
6 5 4 5 5 6 8 8 7 7 9 6 6 10 10 9 9 9 9 10 12 14 12 11 12 14 15 17 19 19 20 19 18 14 9 7 5 4 6 8 9 11 12 12
5 5 4 5 7 6 8 5 7 7 5 5 2 7 7 7 8 10 10 9 11 12 12 11 12 13 15 18 17 19 20 19 18 16 14 15 12 12 12 9 9 9 11 11
5 3 3 6 6 5 5 3 5 7 5 6 4 6 9 4 8 10 10 10 10 10 12 12 13 14 15 16 16 17 18 19 18 18 18 17 14 10 7 6 9 10 10 11
6 3 3 4 4 5 2 3 4 3 2 7 7 7 9 5 8 8 9 9 9 8 9 10 11 11 12 12 13 14 17 19 19 19 19 19 17 13 11 11 11 10 8 9
6 4 3 1 2 1 2 2 1 1 3 7 4 7 10 6 6 8 8 7 7 6 6 7 8 9 10 11 13 14 17 18 19 20 20 20 19 17 16 14 13 11 9 9
4 6 3 1 2 3 4 5 4 3 4 3 3 8 7 5 5 5 6 6 5 5 5 7 8 9 10 12 13 15 17 18 19 20 21 19 18 14 12 13 11 12 11 11
2 6 4 3 2 2 2 4 3 2 3 3 6 6 7 4 4 4 5 5 5 5 5 5 6 7 8 10 12 15 17 17 18 19 19 18 18 16 14 13 12 10 9 9
2 6 5 4 1 2 2 1 1 2 2 4 5 5 4 3 5 5 5 6 7 5 5 4 4 6 7 8 10 11 15 17 17 18 17 15 17 17 15 12 14 13 12 10
2 3 5 3 2 3 1 1 1 2 2 3 4 6 2 2 4 6 6 6 6 6 6 5 5 4 5 6 7 9 10 12 13 15 16 15 15 16 15 13 14 13 11 12
2 2 4 6 5 3 4 4 3 2 4 3 4 8 1 2 4 5 7 8 6 6 6 4 4 3 2 3 5 7 8 10 11 12 13 15 14 14 14 14 14 13 13 12
1 1 3 5 3 2 1 3 4 3 3 4 5 9 3 6 7 7 7 8 8 7 6 5 4 3 3 3 3 5 7 9 9 10 11 13 13 14 15 14 13 13 13 12
3 3 5 7 6 3 5 7 6 5 6 7 9 12 11 10 10 10 9 9 8 7 6 5 5 4 4 3 3 3 4 6 8 8 10 12 13 14 14 13 13 13 13 13
1 4 6 9 9 7 10 12 10 11 11 10 11 12 13 10 9 9 8 8 8 7 7 7 6 5 5 4 3 3 3 4 6 8 9 11 11 11 11 11 12 12 12 12
2 3 4 8 9 10 13 14 13 14 12 13 13 14 9 9 7 7 7 7 8 7 7 7 7 6 5 5 4 3 3 3 5 7 8 8 9 9 10 11 11 11 11 11
3 3 3 6 5 6 11 11 12 10 8 8 11 11 7 8 8 7 6 6 7 8 8 7 7 6 6 6 5 4 4 3 4 6 6 7 9 9 10 10 10 11 11 11
5 4 3 4 2 9 8 3 6 8 8 7 7 7 7 9 8 6 4 5 7 7 8 7 7 7 7 6 6 5 3 3 4 5 5 6 8 8 8 9 10 10 9 10
9 6 4 3 5 9 7 4 3 5 6 5 6 7 8 8 5 4 4 5 5 7 8 7 7 7 6 6 5 4 2 2 3 4 5 6 8 9 9 9 9 8 9 8
6 5 4 4 4 7 6 4 2 2 5 4 4 6 6 4 3 5 5 6 7 7 7 7 6 6 5 5 4 3 2 2 3 4 5 6 8 9 9 9 8 6 7 8
4 4 7 7 7 9 7 4 1 4 6 3 3 4 4 4 6 7 7 6 6 7 8 7 6 5 5 5 3 3 2 3 3 2 3 5 7 8 8 7 6 7 7 7
7 6 7 6 7 10 4 2 4 6 4 3 3 4 5 6 7 7 7 7 6 7 7 7 6 6 5 4 3 3 3 3 1 2 4 5 6 6 6 8 7 7 8 8
8 9 7 9 10 6 3 5 5 4 4 4 5 5 6 7 8 8 7 7 6 6 7 6 6 6 5 4 3 4 4 2 1 2 4 5 6 6 7 8 8 7 7 7
6 4 5 7 9 8 7 7 6 5 6 6 6 7 6 7 8 8 8 7 6 6 6 6 6 6 6 5 5 4 3 1 2 3 4 5 6 6 6 6 7 7 7 7
7 5 5 8 9 8 9 9 9 8 7 7 7 7 7 8 8 8 7 7 6 6 6 5 5 6 7 6 6 5 3 1 2 3 4 5 5 6 5 4 4 5 5 7
8 9 8 10 8 7 8 7 7 8 8 8 8 9 8 7 9 8 7 6 6 6 6 6 5 6 6 6 6 5 4 2 2 3 4 4 4 4 4 5 3 3 4 8
Wind_Direction
179 199 223 220 222 244 267 273 271 273 281 262 255 261 262 254 249 248 244 238 227 227 227 208 200 197 195 192 189 189 191 187 182 183 184 185 189 188 188 189 186 184 182 180
8 245 240 240 241 248 256 266 275 287 284 280 270 267 261 245 241 237 234 234 233 233 227 207 198 195 198 196 194 192 193 190 189 191 190 188 182 184 186 184 187 188 187 185
227 254 258 245 246 249 257 249 258 275 306 285 277 274 252 249 239 238 236 232 230 228 223 212 200 200 200 200 197 195 195 193 192 189 176 165 159 159 179 190 194 195 191 190
258 268 267 250 244 232 267 251 262 268 282 280 259 279 262 237 239 239 238 235 231 229 225 217 207 203 203 204 200 197 195 194 192 187 184 182 188 193 197 192 192 189 192 192
266 275 254 250 248 225 245 278 275 265 258 274 249 261 275 228 236 239 237 235 233 229 222 218 213 208 208 205 200 198 194 194 192 190 192 192 198 199 185 177 182 187 191 193
265 275 253 244 266 237 242 328 305 274 223 251 226 221 269 222 225 237 238 238 234 229 226 225 220 211 211 205 200 197 194 196 193 193 194 197 199 192 181 185 189 190 190 193
312 288 266 248 294 274 154 116 327 277 213 243 210 214 250 241 236 234 238 245 245 234 227 229 223 213 211 206 200 197 196 198 195 196 198 201 201 196 196 193 193 189 189 195
317 296 269 256 215 230 214 175 193 229 231 268 228 232 252 255 254 256 255 262 270 260 242 233 225 215 212 210 204 199 198 200 196 198 202 202 201 199 201 196 193 194 197 198
272 278 297 291 269 192 211 210 217 262 281 263 246 269 293 309 314 303 296 294 280 272 266 255 241 221 215 213 209 204 201 201 199 199 201 202 200 200 200 195 193 196 196 189
220 280 287 298 319 236 214 176 148 208 247 257 266 258 256 304 307 318 327 318 307 309 308 294 267 236 222 218 213 208 205 203 200 198 200 201 201 201 200 192 194 196 193 184
186 256 297 315 230 220 175 170 196 220 232 230 268 265 236 279 321 314 311 317 317 318 311 307 297 269 230 219 212 208 205 203 200 198 198 199 201 199 196 196 196 195 189 184
212 218 270 263 262 242 197 190 168 194 261 233 244 269 266 313 337 331 326 329 326 318 310 306 303 300 272 230 220 210 203 203 203 200 199 199 198 196 196 198 196 191 188 187
201 208 308 326 325 339 243 207 192 220 234 234 236 264 305 337 335 334 331 329 328 327 327 328 327 317 296 258 237 222 209 203 201 197 196 196 194 194 196 198 192 188 187 185
242 203 208 228 243 259 274 265 243 221 235 246 243 267 298 318 323 326 328 325 324 322 324 329 328 326 313 285 252 235 222 207 196 194 195 195 196 196 196 194 189 187 186 184
176 242 241 251 260 258 259 264 253 233 227 236 256 265 279 293 296 302 311 316 321 325 329 330 327 324 323 310 290 260 235 215 197 190 195 198 195 192 189 187 186 184 184 185
185 247 259 264 255 258 264 257 249 245 239 242 258 268 275 282 291 301 308 317 318 320 323 326 327 325 322 315 302 284 253 226 199 192 196 192 185 184 185 185 181 179 181 181
214 217 254 270 284 283 259 243 235 233 231 232 248 262 290 293 296 296 303 313 313 316 316 316 317 315 312 307 299 279 252 219 199 193 188 184 179 181 183 178 175 179 180 178
202 203 232 269 300 248 250 234 234 239 246 244 261 287 292 285 283 280 289 303 310 316 313 312 311 309 308 307 306 292 258 202 191 187 182 178 176 176 173 174 178 179 176 179
199 200 217 227 250 270 281 264 224 226 251 242 260 290 304 301 298 291 311 312 303 303 303 300 296 295 301 304 306 300 268 200 183 183 182 179 175 172 171 175 177 175 172 175
185 192 207 214 237 254 261 267 262 189 258 255 256 279 301 325 295 287 317 313 311 311 311 309 306 305 309 307 311 297 259 200 200 198 190 180 173 171 175 176 171 163 165 169
173 196 214 223 240 261 261 267 136 191 246 277 269 277 285 268 257 280 298 302 304 306 308 313 316 312 309 310 312 304 268 232 223 190 175 171 169 169 168 163 158 155 154 157
191 194 205 201 224 249 249 161 194 231 257 269 272 268 272 281 288 292 296 295 301 309 314 320 319 313 314 317 317 310 281 260 201 161 164 164 158 154 153 152 153 154 156 159
209 199 196 203 223 241 219 219 237 243 257 263 262 269 272 283 289 295 295 296 301 305 311 317 311 312 316 320 315 296 293 278 175 156 164 160 152 153 157 157 156 155 159 161
246 210 211 245 255 256 258 261 264 253 252 260 263 270 271 274 278 285 291 293 296 302 305 313 315 316 316 318 313 298 297 267 178 170 165 158 156 153 154 156 159 161 166 164
221 200 219 247 262 278 265 253 257 262 265 272 277 274 269 270 274 275 279 284 290 295 299 301 302 305 306 312 313 315 311 276 179 170 164 160 159 155 153 150 160 166 177 175
197 199 212 239 234 235 257 258 259 266 271 273 277 279 275 263 267 273 273 275 282 289 293 296 299 303 308 314 312 312 308 273 188 174 168 162 156 152 148 140 117 105 150 157